Time,TemperatureF,DewpointF,PressureIn,WindDirection,WindDirectionDegrees,WindSpeedMPH,WindSpeedGustMPH,Humidity,HourlyPrecipIn,Conditions,Clouds,dailyrainin,SoftwareType,DateUTC
2013-05-15 05:02:00,62.0,44.0,29.69,NW,314,0.0,1.0,52,0.00,,,0.00,,2013-05-15 10:02:00,
2013-05-15 05:12:00,62.0,44.0,29.69,NW,314,0.0,1.0,52,0.00,,,0.00,,2013-05-15 10:12:00,
2013-05-15 05:22:00,61.0,44.0,29.70,WNW,291,0.0,4.0,54,0.00,,,0.00,,2013-05-15 10:22:00,
2013-05-15 05:32:00,61.0,45.0,29.70,West,273,1.0,6.0,55,0.00,,,0.00,,2013-05-15 10:32:00,
2013-05-15 05:42:00,60.0,45.0,29.72,West,273,0.0,4.0,57,0.00,,,0.00,,2013-05-15 10:42:00,
2013-05-15 05:52:00,60.0,45.0,29.72,West,273,0.0,4.0,57,0.00,,,0.00,,2013-05-15 10:52:00,
2013-05-15 06:08:00,60.0,45.0,29.72,WNW,295,1.0,5.0,58,0.00,,,0.00,,2013-05-15 11:08:00,
2013-05-15 06:17:00,60.0,46.0,29.73,WNW,294,1.0,6.0,59,0.00,,,0.00,,2013-05-15 11:17:00,
2013-05-15 06:26:00,60.0,46.0,29.73,WNW,294,1.0,6.0,59,0.00,,,0.00,,2013-05-15 11:26:00,
2013-05-15 06:35:00,60.0,46.0,29.73,WNW,289,1.0,9.0,60,0.00,,,0.00,,2013-05-15 11:35:00,
2013-05-15 06:47:00,60.0,47.0,29.74,NW,308,1.0,5.0,61,0.00,,,0.00,,2013-05-15 11:47:00,
2013-05-15 07:06:00,60.0,47.0,29.75,NW,315,2.0,6.0,61,0.00,,,0.00,,2013-05-15 12:06:00,
2013-05-15 07:13:00,61.0,47.0,29.76,NW,316,2.0,6.0,61,0.00,,,0.00,,2013-05-15 12:13:00,
2013-05-15 07:27:00,61.0,47.0,29.76,NW,316,2.0,6.0,61,0.00,,,0.00,,2013-05-15 12:27:00,
2013-05-15 07:35:00,61.0,47.0,29.76,NW,307,1.0,6.0,61,0.00,,,0.00,,2013-05-15 12:35:00,
2013-05-15 07:46:00,61.0,47.0,29.76,NW,307,1.0,6.0,61,0.00,,,0.00,,2013-05-15 12:46:00,
2013-05-15 07:57:00,62.0,48.0,29.78,NNW,327,3.0,8.0,61,0.00,,,0.00,,2013-05-15 12:57:00,
2013-05-15 08:07:00,66.0,49.0,29.79,NNW,340,3.0,6.0,55,0.00,,,0.00,,2013-05-15 13:07:00,
2013-05-15 08:15:00,66.0,49.0,29.79,NNW,340,3.0,6.0,55,0.00,,,0.00,,2013-05-15 13:15:00,
2013-05-15 08:25:00,64.0,47.0,29.81,NNW,337,3.0,7.0,55,0.00,,,0.00,,2013-05-15 13:25:00,
2013-05-15 08:46:00,63.0,47.0,29.82,NW,318,3.0,11.0,55,0.00,,,0.00,,2013-05-15 13:46:00,
2013-05-15 08:58:00,64.0,47.0,29.83,NNW,329,3.0,13.0,55,0.00,,,0.00,,2013-05-15 13:58:00,
2013-05-15 09:05:00,65.0,47.0,29.84,NW,324,2.0,7.0,53,0.00,,,0.00,,2013-05-15 14:05:00,
2013-05-15 09:13:00,66.0,48.0,29.84,NW,320,3.0,8.0,52,0.00,,,0.00,,2013-05-15 14:13:00,
2013-05-15 09:25:00,66.0,48.0,29.84,NW,320,3.0,8.0,52,0.00,,,0.00,,2013-05-15 14:25:00,
2013-05-15 09:36:00,65.0,46.0,29.86,NW,319,3.0,8.0,51,0.00,,,0.00,,2013-05-15 14:36:00,
2013-05-15 09:45:00,65.0,46.0,29.86,NW,319,3.0,8.0,51,0.00,,,0.00,,2013-05-15 14:45:00,
2013-05-15 10:08:00,65.0,45.0,29.85,NNW,327,3.0,9.0,49,0.00,,,0.00,,2013-05-15 15:08:00,
2013-05-15 10:15:00,65.0,45.0,29.85,NNW,327,3.0,9.0,49,0.00,,,0.00,,2013-05-15 15:15:00,
2013-05-15 10:27:00,65.0,45.0,29.86,NNW,332,2.0,8.0,49,0.00,,,0.00,,2013-05-15 15:27:00,
2013-05-15 10:36:00,66.0,45.0,29.86,NNW,338,4.0,8.0,47,0.00,,,0.00,,2013-05-15 15:36:00,
2013-05-15 10:47:00,66.0,45.0,29.86,NNW,338,4.0,8.0,47,0.00,,,0.00,,2013-05-15 15:47:00,
2013-05-15 11:00:00,67.0,46.0,29.86,NNW,327,3.0,9.0,46,0.00,,,0.00,,2013-05-15 16:00:00,
2013-05-15 11:07:00,68.0,45.0,29.87,NW,320,3.0,10.0,44,0.00,,,0.00,,2013-05-15 16:07:00,
2013-05-15 11:20:00,69.0,46.0,29.87,NNW,332,4.0,8.0,43,0.00,,,0.00,,2013-05-15 16:20:00,
2013-05-15 11:27:00,69.0,46.0,29.87,NNW,332,4.0,8.0,43,0.00,,,0.00,,2013-05-15 16:27:00,
2013-05-15 11:34:00,70.0,45.0,29.87,NW,314,3.0,9.0,41,0.00,,,0.00,,2013-05-15 16:34:00,
2013-05-15 11:47:00,70.0,45.0,29.87,NW,314,3.0,9.0,41,0.00,,,0.00,,2013-05-15 16:47:00,
2013-05-15 12:08:00,72.0,46.0,29.86,NNW,341,2.0,7.0,39,0.00,,,0.00,,2013-05-15 17:08:00,
2013-05-15 12:26:00,72.0,44.0,29.85,NNW,327,3.0,9.0,36,0.00,,,0.00,,2013-05-15 17:26:00,
2013-05-15 12:35:00,72.0,44.0,29.82,North,350,3.0,8.0,36,0.00,,,0.00,,2013-05-15 17:35:00,
2013-05-15 12:45:00,72.0,44.0,29.82,North,350,3.0,8.0,36,0.00,,,0.00,,2013-05-15 17:45:00,
2013-05-15 12:58:00,73.0,44.0,29.84,North,2,3.0,7.0,35,0.00,,,0.00,,2013-05-15 17:58:00,
2013-05-15 13:04:00,73.0,44.0,29.86,WNW,285,3.0,6.0,35,0.00,,,0.00,,2013-05-15 18:04:00,
2013-05-15 13:14:00,73.0,44.0,29.86,WNW,285,3.0,6.0,35,0.00,,,0.00,,2013-05-15 18:14:00,
2013-05-15 13:26:00,73.0,45.0,29.86,WNW,299,2.0,6.0,37,0.00,,,0.00,,2013-05-15 18:26:00,
2013-05-15 13:46:00,73.0,43.0,29.85,WNW,290,2.0,6.0,34,0.00,,,0.00,,2013-05-15 18:46:00,
2013-05-15 13:54:00,73.0,43.0,29.83,NNW,330,2.0,5.0,34,0.00,,,0.00,,2013-05-15 18:54:00,
2013-05-15 14:14:00,74.0,44.0,29.84,NW,313,2.0,5.0,34,0.00,,,0.00,,2013-05-15 19:14:00,
2013-05-15 14:37:00,75.0,45.0,29.85,WNW,302,2.0,7.0,34,0.00,,,0.00,,2013-05-15 19:37:00,
2013-05-15 14:44:00,75.0,45.0,29.85,WNW,302,2.0,7.0,34,0.00,,,0.00,,2013-05-15 19:44:00,
2013-05-15 14:54:00,75.0,45.0,29.84,West,268,2.0,8.0,34,0.00,,,0.00,,2013-05-15 19:54:00,
2013-05-15 15:07:00,75.0,45.0,29.84,West,273,2.0,6.0,34,0.00,,,0.00,,2013-05-15 20:07:00,
2013-05-15 15:37:00,75.0,45.0,29.84,WNW,303,2.0,5.0,34,0.00,,,0.00,,2013-05-15 20:37:00,
2013-05-15 15:53:00,76.0,46.0,29.83,West,262,1.0,7.0,34,0.00,,,0.00,,2013-05-15 20:53:00,
2013-05-15 16:07:00,76.0,45.0,29.82,WSW,250,2.0,7.0,33,0.00,,,0.00,,2013-05-15 21:07:00,
2013-05-15 16:18:00,76.0,45.0,29.82,WSW,250,2.0,7.0,33,0.00,,,0.00,,2013-05-15 21:18:00,
2013-05-15 16:26:00,76.0,44.0,29.82,West,278,2.0,7.0,32,0.00,,,0.00,,2013-05-15 21:26:00,
2013-05-15 16:39:00,76.0,44.0,29.82,WNW,282,2.0,8.0,32,0.00,,,0.00,,2013-05-15 21:39:00,
2013-05-15 16:48:00,76.0,44.0,29.82,WNW,282,2.0,8.0,32,0.00,,,0.00,,2013-05-15 21:48:00,
2013-05-15 16:56:00,77.0,45.0,29.82,West,262,2.0,6.0,32,0.00,,,0.00,,2013-05-15 21:56:00,
2013-05-15 17:08:00,77.0,44.0,29.81,WSW,257,1.0,9.0,31,0.00,,,0.00,,2013-05-15 22:08:00,
2013-05-15 17:16:00,77.0,44.0,29.81,WSW,257,1.0,9.0,31,0.00,,,0.00,,2013-05-15 22:16:00,
2013-05-15 17:27:00,77.0,45.0,29.82,WNW,290,2.0,9.0,32,0.00,,,0.00,,2013-05-15 22:27:00,
2013-05-15 17:47:00,77.0,45.0,29.81,West,278,2.0,6.0,32,0.00,,,0.00,,2013-05-15 22:47:00,
2013-05-15 17:54:00,77.0,44.0,29.82,WNW,289,2.0,5.0,31,0.00,,,0.00,,2013-05-15 22:54:00,
2013-05-15 18:07:00,77.0,44.0,29.82,West,279,3.0,7.0,31,0.00,,,0.00,,2013-05-15 23:07:00,
2013-05-15 18:14:00,77.0,44.0,29.82,West,279,3.0,7.0,31,0.00,,,0.00,,2013-05-15 23:14:00,
2013-05-15 18:27:00,77.0,44.0,29.81,West,270,2.0,6.0,31,0.00,,,0.00,,2013-05-15 23:27:00,
2013-05-15 18:38:00,77.0,45.0,29.81,West,281,1.0,5.0,32,0.00,,,0.00,,2013-05-15 23:38:00,
2013-05-15 18:47:00,77.0,45.0,29.81,West,281,1.0,5.0,32,0.00,,,0.00,,2013-05-15 23:47:00,
2013-05-15 19:05:00,77.0,45.0,29.81,West,262,1.0,5.0,32,0.00,,,0.00,,2013-05-16 00:05:00,
2013-05-15 19:16:00,77.0,45.0,29.81,West,262,1.0,5.0,32,0.00,,,0.00,,2013-05-16 00:16:00,
2013-05-15 19:25:00,77.0,45.0,29.81,West,260,1.0,5.0,32,0.00,,,0.00,,2013-05-16 00:25:00,
2013-05-15 19:35:00,76.0,45.0,29.81,WSW,245,1.0,5.0,33,0.00,,,0.00,,2013-05-16 00:35:00,
2013-05-15 19:47:00,74.0,44.0,29.81,West,274,1.0,8.0,34,0.00,,,0.00,,2013-05-16 00:47:00,
2013-05-15 19:54:00,74.0,44.0,29.81,West,274,1.0,8.0,34,0.00,,,0.00,,2013-05-16 00:54:00,
2013-05-15 20:06:00,73.0,44.0,29.82,WSW,246,0.0,4.0,35,0.00,,,0.00,,2013-05-16 01:06:00,
2013-05-15 20:15:00,72.0,44.0,29.82,WSW,247,0.0,2.0,37,0.00,,,0.00,,2013-05-16 01:15:00,
2013-05-15 20:27:00,72.0,44.0,29.82,WSW,247,0.0,2.0,37,0.00,,,0.00,,2013-05-16 01:27:00,
2013-05-15 20:35:00,71.0,45.0,29.82,North,0,0.0,0.0,39,0.00,,,0.00,,2013-05-16 01:35:00,
2013-05-15 20:47:00,71.0,45.0,29.82,North,0,0.0,0.0,39,0.00,,,0.00,,2013-05-16 01:47:00,
2013-05-15 20:55:00,70.0,45.0,29.82,North,0,0.0,0.0,40,0.00,,,0.00,,2013-05-16 01:55:00,
2013-05-15 21:07:00,69.0,44.0,29.83,North,0,0.0,0.0,41,0.00,,,0.00,,2013-05-16 02:07:00,
2013-05-15 21:15:00,69.0,44.0,29.83,North,0,0.0,0.0,41,0.00,,,0.00,,2013-05-16 02:15:00,
2013-05-15 21:26:00,69.0,44.0,29.83,North,0,0.0,0.0,41,0.00,,,0.00,,2013-05-16 02:26:00,
2013-05-15 21:45:00,69.0,44.0,29.83,North,0,0.0,0.0,41,0.00,,,0.00,,2013-05-16 02:45:00,